EW2972 Weather Reports


Display with metric or nautical units.
time (UTC)temp
F
wind
direction
speed
MPH
gust
MPH
rain 1hr
in
rain 24hr
in
rain mn
in
humidity
%
barometer
mb
20181219151208 54 317 0.0 0.0 0.00 0.20 0.20 99 1011.8
20181219150710 54 304 0.0 0.0 0.00 0.20 0.20 99 1011.8
20181219150208 54 352 0.0 0.0 0.00 0.20 0.20 99 1011.6
20181219145707 54 314 0.0 0.0 0.00 0.20 0.20 99 1011.5
20181219145206 54 288 0.0 0.0 0.00 0.20 0.20 99 1011.4
20181219144708 54 306 0.0 0.0 0.00 0.20 0.20 99 1011.5
20181219144209 54 351 0.0 0.0 0.00 0.20 0.20 99 1011.4
20181219143706 54 319 0.0 0.0 0.00 0.20 0.20 99 1011.4
20181219143209 54 327 0.0 1.0 0.00 0.20 0.20 99 1011.3
20181219142705 54 300 0.0 1.0 0.00 0.20 0.20 99 1011.1
20181219142209 54 330 0.0 1.0 0.00 0.20 0.20 99 1011.2
20181219141709 54 325 0.0 0.0 0.00 0.20 0.20 99 1011.2
20181219141209 54 358 0.0 0.0 0.01 0.20 0.20 99 1011.2
20181219140708 54 311 0.0 0.0 0.01 0.20 0.20 99 1011.1
20181219140210 54 48 0.0 0.0 0.01 0.20 0.20 99 1011.1
20181219135706 54 309 0.0 0.0 0.01 0.20 0.20 99 1011.0
20181219135206 54 335 0.0 0.0 0.01 0.20 0.20 99 1011.0
20181219134706 54 335 0.0 0.0 0.01 0.20 0.20 99 1010.9
20181219134210 54 338 0.0 0.0 0.01 0.20 0.20 99 1011.0
20181219133709 54 314 0.0 0.0 0.01 0.20 0.20 99 1011.0
20181219133209 54 307 0.0 0.0 0.01 0.20 0.20 99 1010.9
20181219132706 54 51 0.0 0.0 0.01 0.20 0.20 99 1010.8
20181219132209 54 70 0.0 0.0 0.01 0.20 0.20 99 1010.8
20181219131709 54 9 0.0 0.0 0.00 0.19 0.19 99 1010.9
20181219131209 54 338 0.0 0.0 0.00 0.19 0.19 99 1010.9
20181219130706 54 346 0.0 0.0 0.00 0.19 0.19 99 1011.0
20181219130208 54 58 0.0 0.0 0.00 0.19 0.19 99 1011.1
20181219125706 54 70 0.0 0.0 0.00 0.19 0.19 99 1011.2
20181219125207 54 295 0.0 0.0 0.01 0.19 0.19 99 1011.4
20181219124710 54 328 0.0 0.0 0.01 0.19 0.19 99 1011.3
20181219124209 54 304 0.0 0.0 0.02 0.20 0.19 99 1011.2
20181219123706 54 325 0.0 0.0 0.03 0.20 0.19 99 1011.3
20181219123209 54 63 0.0 0.0 0.03 0.20 0.19 99 1011.2
20181219122707 54 337 0.0 0.0 0.04 0.20 0.19 99 1011.1
20181219122208 54 358 0.0 0.0 0.05 0.20 0.19 99 1011.1
20181219121706 54 349 0.0 0.0 0.06 0.20 0.19 99 1011.1
20181219121210 54 337 0.0 0.0 0.07 0.20 0.19 99 1011.2
20181219120708 54 337 0.0 0.0 0.07 0.20 0.19 99 1011.1
20181219120206 54 318 0.0 0.0 0.07 0.20 0.19 99 1011.1
20181219115734 54 353 0.0 0.0 0.08 0.20 0.19 99 1011.2
20181219115206 54 306 0.0 0.0 0.07 0.19 0.18 99 1011.2
20181219114709 54 303 0.0 0.0 0.08 0.19 0.18 99 1011.4
20181219114209 54 59 0.0 0.0 0.07 0.18 0.17 99 1011.3
20181219113709 54 286 0.0 0.0 0.06 0.17 0.16 99 1011.3
20181219113205 54 321 0.0 0.0 0.06 0.17 0.16 99 1011.3
20181219112706 55 328 0.0 0.0 0.05 0.16 0.15 99 1011.3
20181219112210 55 310 0.0 0.0 0.04 0.15 0.14 99 1011.2
20181219111707 55 316 0.0 0.0 0.03 0.14 0.13 99 1011.1
20181219111209 55 319 0.0 0.0 0.02 0.13 0.12 99 1011.1
20181219110706 55 331 0.0 0.0 0.02 0.13 0.12 99 1011.1
20181219110208 55 333 0.0 0.0 0.02 0.13 0.12 99 1011.1
20181219105710 55 301 0.0 0.0 0.01 0.12 0.11 99 1011.2
20181219105214 55 321 0.0 0.0 0.01 0.12 0.10 99 1011.2
20181219104707 55 333 0.0 0.0 0.00 0.11 0.10 99 1011.3
20181219104209 55 42 0.0 0.0 0.00 0.11 0.10 99 1011.3
20181219103708 55 334 0.0 0.0 0.01 0.11 0.10 99 1011.3
20181219103209 55 269 0.0 0.0 0.01 0.11 0.10 99 1011.2
20181219102708 55 335 0.0 0.0 0.03 0.11 0.10 99 1011.2
20181219102213 55 333 0.0 0.0 0.04 0.11 0.10 99 1011.2
20181219101705 55 323 0.0 0.0 0.05 0.11 0.10 98 1011.2
20181219101208 55 299 0.0 0.0 0.06 0.11 0.10 98 1011.2
20181219100711 55 341 0.0 0.0 0.08 0.11 0.10 98 1011.2
20181219100207 55 338 0.0 0.0 0.08 0.11 0.10 98 1011.3
20181219095706 55 311 0.0 0.0 0.08 0.11 0.10 98 1011.4
20181219095207 55 21 0.0 0.0 0.09 0.11 0.10 98 1011.5
20181219094706 55 324 0.0 0.0 0.09 0.11 0.10 98 1011.5
20181219094210 55 291 0.0 0.0 0.10 0.11 0.10 98 1011.6
20181219093710 55 332 0.0 0.0 0.09 0.10 0.09 98 1011.8
20181219093221 55 292 0.0 0.0 0.08 0.09 0.08 98 1011.8
20181219092708 55 321 0.0 0.0 0.07 0.08 0.07 98 1011.9
20181219092210 56 310 0.0 0.0 0.06 0.07 0.06 97 1012.0
20181219091708 56 311 0.0 0.0 0.05 0.06 0.05 97 1012.1
20181219091213 56 32 0.0 0.0 0.04 0.05 0.04 97 1012.2
20181219090705 56 32 0.0 0.0 0.02 0.03 0.02 97 1012.1
20181219090208 56 32 0.0 0.0 0.02 0.03 0.02 97 1011.9
20181219085707 56 66 0.0 0.0 0.02 0.03 0.02 96 1011.9
20181219085206 56 350 0.0 0.0 0.01 0.02 0.01 96 1012.0
20181219084705 56 44 0.0 0.0 0.01 0.02 0.01 96 1011.9
20181219084209 56 83 0.0 0.0 0.00 0.01 0.00 96 1011.9
20181219083706 56 79 0.0 0.0 0.00 0.01 0.00 96 1012.0
20181219083208 56 79 0.0 0.0 0.00 0.01 0.00 96 1012.2
20181219082713 56 79 0.0 0.0 0.00 0.01 0.00 96 1012.2
20181219082208 56 45 0.0 0.0 0.00 0.01 0.00 96 1012.3
20181219081706 56 297 0.0 0.0 0.00 0.01 0.00 96 1012.5
20181219081207 56 37 0.0 0.0 0.00 0.01 0.00 96 1012.6
20181219080708 56 80 0.0 0.0 0.00 0.01 0.00 96 1012.6
20181219080209 56 84 0.0 0.0 0.00 0.01 0.00 96 1012.8
20181219075706 56 62 0.0 0.0 0.00 0.01 0.00 96 1012.7
20181219075207 56 63 0.0 0.0 0.00 0.01 0.00 96 1012.8
20181219074705 56 64 0.0 0.0 0.00 0.01 0.00 95 1012.9
20181219074208 56 13 0.0 0.0 0.00 0.01 0.00 95 1012.8
20181219073706 56 40 0.0 0.0 0.00 0.01 0.00 95 1012.8
20181219073209 56 70 0.0 0.0 0.00 0.01 0.00 95 1013.0
20181219072706 56 44 0.0 0.0 0.00 0.01 0.00 95 1012.9
20181219072208 56 316 0.0 0.0 0.00 0.01 0.00 95 1013.2
20181219071709 56 317 0.0 0.0 0.00 0.01 0.00 95 1013.2
20181219071208 56 79 0.0 0.0 0.00 0.01 0.00 95 1013.1
20181219070706 56 266 0.0 0.0 0.00 0.01 0.00 95 1013.1
20181219070208 56 148 0.0 0.0 0.00 0.01 0.00 95 1013.1
20181219065706 56 22 0.0 0.0 0.00 0.01 0.00 95 1013.2
20181219065207 56 66 0.0 0.0 0.00 0.01 0.00 95 1013.4
20181219064709 56 101 0.0 0.0 0.00 0.01 0.00 95 1013.4
20181219064208 56 32 0.0 0.0 0.00 0.01 0.00 95 1013.4
20181219063709 57 77 0.0 0.0 0.00 0.01 0.00 95 1013.4
20181219063206 57 82 0.0 0.0 0.00 0.01 0.00 94 1013.6
20181219062708 57 84 0.0 0.0 0.00 0.01 0.00 94 1013.8
20181219062208 57 96 0.0 0.0 0.00 0.01 0.00 94 1013.9
20181219061706 57 58 0.0 0.0 0.00 0.01 0.00 94 1014.0
20181219061209 57 308 0.0 0.0 0.00 0.01 0.00 94 1014.1
20181219060727 57 44 0.0 0.0 0.00 0.01 0.00 94 1014.1
20181219060210 57 61 0.0 0.0 0.00 0.01 0.01 94 1014.3
20181219055707 57 65 0.0 0.0 0.00 0.01 0.01 94 1014.3
20181219055229 57 59 0.0 0.0 0.00 0.01 0.01 94 1014.3
20181219054709 57 75 0.0 0.0 0.00 0.01 0.01 94 1014.2
20181219054208 57 87 0.0 0.0 0.00 0.01 0.01 94 1014.2
20181219053709 57 119 0.0 0.0 0.00 0.01 0.01 95 1014.2
20181219053209 57 39 0.0 0.0 0.00 0.01 0.01 95 1014.2
20181219052706 57 305 0.0 0.0 0.00 0.01 0.01 95 1014.2
20181219052209 57 53 0.0 0.0 0.00 0.01 0.01 95 1014.4
20181219051716 57 85 0.0 0.0 0.00 0.01 0.01 95 1014.5
20181219051208 57 4 0.0 0.0 0.00 0.01 0.01 95 1014.4
20181219050705 57 16 0.0 0.0 0.00 0.01 0.01 95 1014.5
20181219050231 57 349 0.0 0.0 0.00 0.01 0.01 96 1014.5
20181219045709 57 323 0.0 0.0 0.00 0.01 0.01 96 1014.6
20181219045209 57 41 0.0 0.0 0.00 0.01 0.01 97 1014.7
20181219044708 57 4 0.0 0.0 0.00 0.01 0.01 97 1014.7
20181219044208 57 62 0.0 0.0 0.00 0.01 0.01 97 1015.0
20181219043706 57 89 0.0 0.0 0.00 0.01 0.01 97 1015.0
20181219043208 57 89 0.0 0.0 0.00 0.01 0.01 97 1015.2
20181219042705 57 89 0.0 0.0 0.00 0.01 0.01 97 1015.2
20181219042209 57 90 0.0 0.0 0.00 0.01 0.01 97 1015.4
20181219041708 57 103 0.0 0.0 0.00 0.01 0.01 97 1015.3
20181219041208 57 104 0.0 0.0 0.00 0.01 0.01 97 1015.3
20181219040706 57 146 0.0 0.0 0.00 0.01 0.01 97 1015.4
20181219040211 57 106 0.0 0.0 0.00 0.01 0.01 97 1015.4
20181219035706 58 91 0.0 0.0 0.00 0.01 0.01 97 1015.4
20181219035210 58 101 0.0 0.0 0.00 0.01 0.01 97 1015.4
20181219034710 58 129 0.0 0.0 0.00 0.01 0.01 97 1015.4
20181219034209 58 47 0.0 0.0 0.00 0.01 0.01 97 1015.4
20181219033705 58 90 0.0 0.0 0.00 0.01 0.01 97 1015.4
20181219033209 58 91 0.0 0.0 0.00 0.01 0.01 97 1015.5
20181219032706 58 82 0.0 0.0 0.00 0.01 0.01 97 1015.6
20181219032208 58 122 0.0 0.0 0.00 0.01 0.01 97 1015.5
20181219031706 58 101 0.0 0.0 0.00 0.01 0.01 97 1015.6
20181219031208 58 94 0.0 0.0 0.00 0.01 0.01 97 1015.6
20181219030706 58 114 0.0 0.0 0.00 0.01 0.01 97 1015.6
20181219030209 58 115 0.0 0.0 0.00 0.01 0.01 96 1015.6
20181219025709 58 115 0.0 0.0 0.00 0.01 0.01 96 1015.6
20181219025209 58 143 0.0 0.0 0.00 0.01 0.01 96 1015.6
20181219024708 58 145 0.0 0.0 0.00 0.01 0.01 96 1015.6
20181219024209 58 139 0.0 0.0 0.00 0.01 0.01 96 1015.6
20181219023706 58 75 0.0 0.0 0.00 0.01 0.01 96 1015.6
20181219023216 58 120 0.0 0.0 0.00 0.01 0.01 95 1015.6
20181219022706 58 140 0.0 0.0 0.00 0.01 0.01 95 1015.6
20181219022209 58 122 0.0 0.0 0.00 0.01 0.01 95 1015.5
20181219021707 58 170 0.0 0.0 0.00 0.01 0.01 94 1015.5
20181219021209 59 80 0.0 0.0 0.00 0.01 0.01 94 1015.4
20181219020706 59 93 0.0 0.0 0.00 0.01 0.01 93 1015.4
20181219020209 59 88 0.0 0.0 0.00 0.01 0.01 92 1015.5
20181219015709 59 127 0.0 0.0 0.00 0.01 0.01 92 1015.4
20181219015206 59 123 0.0 0.0 0.00 0.01 0.01 91 1015.4
20181219014709 59 146 0.0 0.0 0.00 0.01 0.01 91 1015.4
20181219014209 60 153 0.0 0.0 0.00 0.01 0.01 90 1015.4
20181219013709 60 121 0.0 0.0 0.00 0.01 0.01 90 1015.4
20181219013208 60 116 0.0 0.0 0.00 0.01 0.01 89 1015.4
20181219012705 60 129 0.0 0.0 0.00 0.01 0.01 89 1015.4
20181219012210 60 70 0.0 0.0 0.00 0.01 0.01 89 1015.4
20181219011707 60 79 0.0 0.0 0.00 0.01 0.01 89 1015.4
20181219011209 60 96 0.0 0.0 0.00 0.01 0.01 89 1015.3
20181219010709 60 168 0.0 0.0 0.00 0.01 0.01 88 1015.3
20181219010209 60 96 0.0 0.0 0.00 0.01 0.01 88 1015.2
20181219005706 60 101 0.0 0.0 0.00 0.01 0.01 88 1015.2
20181219005209 60 105 0.0 0.0 0.00 0.01 0.01 88 1015.3
20181219004709 61 65 0.0 0.0 0.00 0.01 0.01 88 1015.2
20181219004206 61 83 0.0 0.0 0.00 0.01 0.01 88 1015.2
20181219003708 60 78 0.0 0.0 0.00 0.01 0.01 89 1015.2
20181219003210 60 106 0.0 0.0 0.00 0.01 0.01 89 1015.2
20181219002706 60 70 0.0 0.0 0.00 0.01 0.01 89 1015.2
20181219002209 60 99 0.0 0.0 0.00 0.01 0.01 89 1015.1
20181219001711 60 75 0.0 0.0 0.00 0.01 0.01 89 1015.0
20181219001208 60 339 0.0 0.0 0.00 0.01 0.01 89 1014.9
20181219000709 60 333 0.0 0.0 0.00 0.01 0.01 89 1014.9
20181219000231 60 109 0.0 0.0 0.00 0.01 0.01 89 1014.8
20181218235707 60 110 0.0 0.0 0.00 0.01 0.01 88 1014.8
20181218235234 60 86 0.0 0.0 0.00 0.01 0.01 88 1014.8
20181218234731 60 103 0.0 0.0 0.00 0.01 0.01 88 1014.8
20181218234209 61 91 0.0 0.0 0.00 0.01 0.01 88 1014.8
20181218233710 61 70 0.0 0.0 0.00 0.01 0.01 88 1014.8
20181218233206 61 106 0.0 0.0 0.00 0.01 0.01 88 1014.8
20181218232705 61 95 0.0 0.0 0.00 0.01 0.01 87 1014.8
20181218232210 61 86 0.0 0.0 0.00 0.01 0.01 87 1014.9
20181218231706 61 75 0.0 0.0 0.00 0.01 0.01 87 1014.9
20181218231208 61 89 0.0 0.0 0.00 0.01 0.01 87 1015.0
20181218230710 61 108 0.0 0.0 0.00 0.01 0.01 87 1015.1
20181218230208 61 346 0.0 0.0 0.00 0.01 0.01 87 1015.2
20181218225709 61 79 0.0 0.0 0.00 0.01 0.01 87 1015.2
20181218225222 61 128 0.0 0.0 0.00 0.01 0.01 87 1015.1
20181218224727 61 121 0.0 0.0 0.00 0.01 0.01 87 1015.2
20181218224221 61 91 0.0 0.0 0.00 0.01 0.01 86 1015.1
20181218223710 61 122 0.0 0.0 0.00 0.01 0.01 86 1015.2
20181218223206 61 131 0.0 0.0 0.00 0.01 0.01 86 1015.1
20181218222708 61 127 0.0 0.0 0.00 0.01 0.01 86 1015.0
20181218222208 61 63 0.0 0.0 0.00 0.01 0.01 85 1014.9
20181218221707 61 128 0.0 0.0 0.00 0.01 0.01 86 1014.9
20181218221209 61 93 0.0 0.0 0.00 0.01 0.01 85 1014.8
20181218220708 61 118 0.0 0.0 0.00 0.01 0.01 85 1014.8
20181218220208 61 53 0.0 0.0 0.00 0.01 0.01 85 1014.8
20181218215709 61 109 0.0 0.0 0.00 0.01 0.01 84 1014.8
20181218215207 62 218 0.0 0.0 0.00 0.01 0.01 84 1014.8
20181218214708 62 47 0.0 0.0 0.00 0.01 0.01 84 1014.7
20181218214206 62 72 0.0 0.0 0.00 0.01 0.01 84 1014.8
20181218213708 62 102 0.0 0.0 0.00 0.01 0.01 85 1014.8
20181218213210 62 127 0.0 0.0 0.00 0.01 0.01 84 1015.0
20181218212706 62 103 0.0 1.0 0.00 0.01 0.01 84 1015.0
20181218212211 61 102 0.0 1.0 0.00 0.01 0.01 85 1014.9
20181218211708 61 99 0.0 1.0 0.00 0.01 0.01 84 1014.8
20181218211209 62 114 0.0 1.0 0.00 0.01 0.01 84 1014.8
20181218210709 61 89 0.0 0.0 0.00 0.01 0.01 83 1014.7
20181218210210 61 110 0.0 0.0 0.00 0.01 0.01 84 1015.0
20181218205707 62 329 0.0 0.0 0.00 0.01 0.01 83 1015.3
20181218205206 62 93 0.0 1.0 0.00 0.01 0.01 84 1015.5
20181218204712 62 102 0.0 1.0 0.00 0.01 0.01 84 1015.5
20181218204213 62 89 0.0 1.0 0.00 0.01 0.01 83 1015.8
20181218203709 62 289 0.0 0.0 0.00 0.01 0.01 84 1015.8
20181218203205 62 296 0.0 0.0 0.00 0.01 0.01 83 1015.8
20181218202706 62 41 0.0 0.0 0.00 0.01 0.01 84 1015.9
20181218202208 61 72 0.0 0.0 0.00 0.01 0.01 84 1016.3
20181218201706 61 32 0.0 0.0 0.00 0.01 0.01 84 1016.4
20181218201208 62 80 0.0 0.0 0.00 0.01 0.01 84 1016.2
20181218200709 61 102 0.0 0.0 0.00 0.01 0.01 86 1016.1
20181218200211 61 341 0.0 0.0 0.00 0.01 0.01 86 1016.1
20181218195706 61 338 0.0 0.0 0.00 0.01 0.01 86 1016.2
20181218195206 61 64 0.0 0.0 0.00 0.01 0.01 88 1016.3
20181218194706 60 265 0.0 0.0 0.00 0.01 0.01 90 1016.4
20181218194208 60 78 0.0 0.0 0.00 0.01 0.01 91 1016.6
20181218193708 60 104 0.0 0.0 0.00 0.01 0.01 92 1016.7
20181218193206 59 89 0.0 0.0 0.00 0.01 0.01 93 1016.8
20181218192708 59 300 0.0 0.0 0.00 0.01 0.01 94 1016.9
20181218192211 59 51 0.0 0.0 0.00 0.01 0.01 96 1016.9
20181218191706 58 58 0.0 0.0 0.00 0.01 0.01 95 1017.0
20181218191238 58 60 0.0 0.0 0.00 0.01 0.01 97 1017.1
20181218190708 58 59 0.0 0.0 0.00 0.01 0.01 98 1017.3
20181218190209 58 345 0.0 0.0 0.00 0.01 0.01 100 1017.6
20181218185707 58 97 0.0 0.0 0.00 0.01 0.01 100 1017.6
20181218185206 58 7 0.0 0.0 0.00 0.01 0.01 100 1017.7
20181218184709 57 290 0.0 0.0 0.00 0.01 0.01 100 1017.8
20181218184209 57 87 0.0 0.0 0.00 0.01 0.01 100 1017.9
20181218183708 57 148 0.0 0.0 0.00 0.01 0.01 100 1018.0
20181218183206 57 66 0.0 0.0 0.00 0.01 0.01 100 1018.0
20181218182709 56 2 0.0 0.0 0.00 0.01 0.01 100 1018.1
20181218182208 56 333 0.0 0.0 0.00 0.01 0.01 100 1018.3
20181218181706 56 65 0.0 0.0 0.00 0.01 0.01 100 1018.3
20181218181209 55 68 0.0 0.0 0.00 0.01 0.01 100 1018.3
20181218180709 55 97 0.0 0.0 0.00 0.01 0.01 100 1018.6
20181218180208 55 131 0.0 0.0 0.00 0.01 0.01 100 1018.6
20181218175707 55 97 0.0 0.0 0.00 0.01 0.01 100 1018.9
20181218175210 55 77 0.0 0.0 0.00 0.01 0.01 100 1018.9
20181218174706 55 149 0.0 0.0 0.00 0.01 0.01 100 1019.0
20181218174206 55 141 0.0 0.0 0.00 0.01 0.01 100 1019.2
20181218173709 55 164 0.0 0.0 0.00 0.01 0.01 100 1019.2
20181218173206 55 103 0.0 0.0 0.00 0.01 0.01 100 1019.3
20181218172708 54 44 0.0 0.0 0.00 0.01 0.01 100 1019.4
20181218172211 55 72 0.0 0.0 0.00 0.01 0.01 100 1019.4
20181218171707 54 117 0.0 0.0 0.00 0.01 0.01 100 1019.5
20181218171209 54 51 0.0 0.0 0.00 0.01 0.01 100 1019.6
20181218170710 54 130 0.0 0.0 0.00 0.01 0.01 100 1019.7
20181218170206 54 116 0.0 0.0 0.00 0.01 0.01 100 1019.6
20181218165709 54 105 0.0 0.0 0.00 0.01 0.01 100 1019.6
20181218165206 54 97 0.0 0.0 0.00 0.01 0.01 100 1019.7
20181218164708 54 305 0.0 0.0 0.00 0.01 0.01 100 1019.7
20181218164207 54 91 0.0 0.0 0.00 0.01 0.01 100 1019.8
20181218163708 54 158 0.0 0.0 0.00 0.01 0.01 100 1019.7
20181218163208 54 98 0.0 0.0 0.00 0.01 0.01 100 1019.9
20181218162708 54 58 0.0 0.0 0.00 0.01 0.01 100 1020.0
20181218162213 54 330 0.0 0.0 0.00 0.01 0.01 100 1020.1
20181218161706 54 336 0.0 0.0 0.00 0.01 0.01 100 1020.2
20181218161208 54 312 0.0 0.0 0.00 0.01 0.01 100 1020.2
20181218160707 54 300 0.0 0.0 0.00 0.01 0.01 100 1020.3
20181218160209 54 353 0.0 0.0 0.00 0.01 0.01 100 1020.3
20181218155709 53 84 0.0 0.0 0.00 0.01 0.01 100 1020.2
20181218155205 54 103 0.0 0.0 0.00 0.01 0.01 100 1020.2
20181218154706 54 24 0.0 0.0 0.00 0.01 0.01 100 1020.2
20181218154206 53 342 0.0 0.0 0.00 0.01 0.01 100 1020.0
20181218153708 53 0 0.0 0.0 0.00 0.01 0.01 100 1019.9
20181218153208 53 317 0.0 0.0 0.00 0.01 0.01 100 1019.9
20181218152706 53 99 0.0 0.0 0.00 0.01 0.01 100 1019.9
20181218152208 53 344 0.0 0.0 0.00 0.01 0.01 100 1019.8
20181218151709 53 96 0.0 0.0 0.00 0.01 0.01 100 1019.8